Visibility
15.0 15.0 15.0 15.0 15.0 15.0 15.0 15.0 15.0 15.0 15.0 15.0 15.0 15.0 15.0 15.0 15.0 15.0 15.0 15.0 15.0 15.0
15.0 15.0 15.0 15.0 15.0 15.0 15.0 15.0 15.0 15.0 15.0 15.0 15.0 15.0 15.0 15.0 15.0 15.0 15.0 15.0 15.0 15.0
15.0 15.0 15.0 15.0 15.0 15.0 15.0 15.0 15.0 15.0 15.0 15.0 15.0 15.0 15.0 15.0 15.0 15.0 15.0 15.0 15.0 15.0
15.0 15.0 15.0 15.0 15.0 14.9 15.0 15.0 15.0 15.0 15.0 15.0 15.0 15.0 15.0 15.0 15.0 15.0 15.0 15.0 15.0 15.0
15.0 15.0 15.0 15.0 14.9 15.0 14.9 15.0 14.8 15.0 15.0 15.0 15.0 14.3 14.9 14.7 6.3 5.1 7.2 15.0 15.0 15.0
15.0 15.0 14.9 15.0 11.3 12.4 14.6 14.2 15.0 15.0 14.0 5.1 5.5 14.0 11.7 7.0 9.0 8.6 6.7 13.7 15.0 15.0
15.0 15.0 15.0 14.4 13.1 10.8 13.0 13.5 13.5 12.4 15.0 5.5 5.6 7.3 10.3 7.9 10.8 14.4 10.8 9.0 13.1 15.0
15.0 15.0 15.0 15.0 15.0 14.9 14.7 14.0 15.0 14.1 14.8 10.0 8.3 3.4 6.0 7.9 8.2 8.4 0.7 0.5 12.9 8.0
15.0 15.0 15.0 15.0 15.0 15.0 15.0 15.0 15.0 13.8 15.0 9.8 9.4 0.9 0.8 3.9 1.8 2.6 0.3 0.2 0.2 0.4
15.0 15.0 15.0 15.0 15.0 15.0 15.0 15.0 15.0 15.0 15.0 6.9 5.3 15.0 2.4 0.2 0.2 0.2 0.1 0.1 0.1 0.2
15.0 15.0 15.0 15.0 15.0 15.0 15.0 15.0 15.0 15.0 15.0 13.3 6.5 15.0 15.0 10.0 1.1 0.2 0.1 0.1 0.1 0.1
15.0 15.0 15.0 15.0 15.0 15.0 15.0 15.0 15.0 15.0 15.0 15.0 15.0 15.0 6.9 4.8 2.7 1.9 1.9 0.4 0.1 0.1
15.0 15.0 15.0 15.0 15.0 15.0 15.0 15.0 15.0 15.0 15.0 15.0 15.0 15.0 15.0 13.6 3.1 1.5 1.5 2.5 1.6 1.1
15.0 15.0 15.0 15.0 15.0 15.0 15.0 15.0 15.0 15.0 15.0 15.0 15.0 15.0 15.0 15.0 14.5 10.9 4.2 2.6 2.0 4.6